Regional Weather Roundup
Issued by NWS

Home | Current Version | Previous Version | Text Only | Print | Product List | Glossary On
Versions: 1 2 3 4 5 6 7 8 9 10 11 12 13 14 15 16 17 18 19 20 21 22 23 24 25 26 27 28 29 30 31 32 33 34 35 36 37 38 39 40 41 42 43 44 45 46 47 48 49 50
000
ASUS43 KLOT 251310
RWRIL

ILLINOIS REGIONAL WEATHER ROUNDUP
NATIONAL WEATHER SERVICE CHICAGO/ROMEOVILLE IL
800 AM CDT FRI JUL 25 2014

NOTE: "FAIR" INDICATES FEW OR NO CLOUDS BELOW 12,000 FEET WITH NO
SIGNIFICANT WEATHER AND/OR OBSTRUCTIONS TO VISIBILITY.

* THESE STATIONS ARE NOT UNDER NWS QUALITY CONTROL. THEY ALSO MAY NOT
  REPORT WEATHER SUCH AS PRECIPITATION OR FOG.

ILZ001-002-007-009-015-016-024-251400-
NORTHWEST ILLINOIS

CITY           SKY/WX    TMP DP  RH WIND       PRES   REMARKS
MOLINE         LGT RAIN  61  58  90 SE7       30.05F FOG
STERLING*      CLOUDY    59  55  88 CALM      30.08F
SAVANNA*       DRIZZLE   61  58  89 SE7       30.04F
$$

ILZ003-004-008-010-011-017-018-251400-
NORTH CENTRAL ILLINOIS

CITY           SKY/WX    TMP DP  RH WIND       PRES   REMARKS
ROCKFORD       LGT RAIN  60  55  83 S6        30.10F
FREEPORT*      LGT RAIN  58  55  90 S12       30.07F
ROCHELLE*      DRIZZLE   58  55  91 CALM      30.09S
DE KALB*       LGT RAIN  58  53  85 SW6       30.10S
PERU*          DRIZZLE   61  55  82 S6        30.11R
$$

ILZ005-006-012>014-019>023-251400-
NORTHEAST ILLINOIS

CITY           SKY/WX    TMP DP  RH WIND       PRES   REMARKS
CHICAGO-OHARE  CLOUDY    63  50  62 SW8       30.09S
CHICAGO-MIDWAY CLOUDY    64  53  67 VRB5      30.09R
AURORA         CLOUDY    59  53  80 S3        30.10S
JOLIET*        PTSUNNY   60  54  80 CALM      30.11S
WAUKEGAN       CLOUDY    63  50  62 SW7       30.08S
DUPAGE AIRPORT CLOUDY    60  54  80 S3        30.09S
KANKAKEE*      PTSUNNY   62  57  84 S3        30.12R
WHEELING       CLOUDY    64  53  67 SW5       30.10S
MORRIS*        PTSUNNY   61  56  83 CALM      30.10R
ROMEOVILLE*    CLOUDY    59  54  82 SW3       30.11S
$$

LMZ740>746-251400-
SOUTHERN LAKE MICHIGAN

STATION/POSITION SKY/WX   TEMP    WIND        PRES    VSBY  WAVE
                          AIR SEA DIR/SP/G                  HT/PER
                          (F)     (DEG/KT/KT) (MB)    (MI)  (FT/S)
SOUTHERN BUOY              62 61  220/  6/  6 1018.6R         0
WAUKEGAN HARBOR            64     250/ 10/ 12   N/A
HARRISON CRIB              65     260/ 10/ 11   N/A
CALUMET HARBOR             62     230/  4/  6 1018.3R
MICHIGAN CITY              61     170/ 12/ 16   N/A
MICHIGAN CITY 6N           63 68  220/  8/ 12   N/A           1/ 2
ST. JOSEPH                 62 63  210/  8/ 10   N/A           1/ 2
$$

ILZ025>027-034>036-040-047-049-050-058-095>099-251400-
WEST-CENTRAL ILLINOIS

CITY           SKY/WX    TMP DP  RH WIND       PRES   REMARKS
QUINCY         CLOUDY    62  56  80 E8        30.04F
GALESBURG*     CLOUDY    60  57  89 E5        30.08F
MACOMB*        TSTM      59  58  98 E6        30.08F
JACKSONVILLE*  CLOUDY    62  59  88 CALM      30.10R
PITTSFIELD*    CLOUDY    62  58  86 CALM      30.09S
$$

ILZ028>032-037-038-041>044-048-051>054-059>061-251400-
CENTRAL ILLINOIS

CITY           SKY/WX    TMP DP  RH WIND       PRES   REMARKS
PONTIAC        CLOUDY    61  59  94 CALM      30.11R
DECATUR        CLOUDY    64  58  80 CALM      30.11R
PEORIA         LGT RAIN  64  57  78 E3        30.11R
LACON*         LGT RAIN  60  55  85 CALM      30.10R
LINCOLN*       CLOUDY    60  57  87 CALM      30.09R
SPRINGFIELD    CLOUDY    63  59  87 CALM      30.11R
TAYLORVILLE    CLOUDY    61  59  94 SW3       30.10R
$$

ILZ033-039-045-046-055>057-062-063-251400-
EAST-CENTRAL ILLINOIS

CITY           SKY/WX    TMP DP  RH WIND       PRES   REMARKS
CHAMPAIGN      CLOUDY    60  56  86 SE5       30.10R
DANVILLE*      CLOUDY    60  57  89 CALM      30.09R
RANTOUL*       CLOUDY    61  55  81 CALM      30.12R
MATTOON        PTSUNNY   64  58  80 SE6       30.08R
PARIS*         PTSUNNY   60  59  96 CALM      30.11R
$$

ILZ079-100>102-251400-
SOUTHWEST ILLINOIS

CITY           SKY/WX    TMP DP  RH WIND       PRES   REMARKS
ALTON          PTSUNNY   64  63  94 SE6       30.10R
BELLEVILLE     CLOUDY    64  61  90 CALM      30.08R
CAHOKIA*       CLOUDY    66  60  81 CALM      30.08R
SPARTA*        PTSUNNY   63  61  94 SE3       30.09R
$$

ILZ064>066-069>071-074>076-080>082-084>086-088>090-092>094-251400-
SOUTH-CENTRAL ILLINOIS

CITY           SKY/WX    TMP DP  RH WIND       PRES   REMARKS
CARBONDALE     PTSUNNY   64  60  87 CALM      30.07R
CAIRO*         PTSUNNY   66  64  93 CALM      30.07S
EFFINGHAM*     PTSUNNY   65  56  73 SE3       30.09R
MARION         PTSUNNY   66  63  88 SE6       30.09R
MT. VERNON     PTSUNNY   64  57  77 CALM      30.09R
CENTRALIA*     PTSUNNY   72  59  62 SE5       30.08R
SALEM*         PTSUNNY   67  61  81 SE5       30.08R
METROPOLIS*    CLOUDY    64  59  85 CALM      30.08R
$$

ILZ067-068-072-073-078-083-087-091-251400-
SOUTHEAST ILLINOIS

CITY           SKY/WX    TMP DP  RH WIND       PRES   REMARKS
LAWRENCEVILLE  PTSUNNY   64  59  83 CALM      30.09R
FLORA*         PTSUNNY   62  60  91 SE3       30.09R
FAIRFIELD*     CLOUDY    64  63  94 CALM      30.08S
HARRISBURG*    CLOUDY    61  61 100 CALM      30.09R
ROBINSON*      PTSUNNY   62  61  98 CALM      30.10S
CARMI*         PTSUNNY   64  64 100 SE3       30.08R
$$

ABBREVIATIONS USED IN REMARKS
   TC - TEMPERATURE IN CELSIUS
  WCI - WIND CHILL INDEX
   HX - HEAT INDEX
  VSB - VISIBILITY
$$




USA.gov is the U.S. government's official web portal to all federal, state and local government web resources and services.